Merced, CA

2:09 PM PST on February 13, 2016 (GMT -0800)
Castle

Weather History for KMER - October, 2013

Change the Weather History Date:

Wednesday, October 9, 2013

  Actual Average (KMCE) Record (KMCE)
Temperature  
Mean Temperature 58 °F 66 °F  
Max Temperature 68 °F 81 °F 92 °F (2002)
Min Temperature 48 °F 50 °F 44 °F (2007)
Degree Days  
Heating Degree Days 7    
Month to date heating degree days  
Since 1 July heating degree days  
Cooling Degree Days 0    
Month to date cooling degree days  
Year to date cooling degree days  
Growing Degree Days 8 (Base 50)    
Moisture  
Dew Point 46 °F    
Average Humidity 72    
Maximum Humidity 100    
Minimum Humidity 40    
Precipitation  
Precipitation 0.00 in 0.01 in 0.10 in (2013)
Month to date precipitation 0.09  
Year to date precipitation 9.08  
Snow  
Snow 0.00 in - - ()
Month to date snowfall  
Since 1 July snowfall  
Since 1 September snowfall  
Snow Depth -    
Sea Level Pressure  
Sea Level Pressure 29.66 in    
Wind  
Wind Speed 5 mph (West)    
Max Wind Speed 9 mph    
Max Gust Speed -    
Visibility 9 miles    
Events Thunderstorm    
T = Trace of Precipitation, MM = Missing Value Source: NWS Daily Summary

Daily Weather History Graph

Daily Weather History Graph

Search for Another Location

Airport or City:

Trip Planner

Search our weather history database for the weather conditions in past years. The results will help you decide how hot, cold, wet, or windy it might be!

Date:

Astronomy

Oct. 09, 2013 Rise Set
Actual Time 7:05 AM PDT 6:33 PM PDT
Civil Twilight 6:38 AM PDT 6:59 PM PDT
Nautical Twilight 6:08 AM PDT 7:29 PM PDT
Astronomical Twilight 5:38 AM PDT 7:59 PM PDT
Moon 12:00 PM PDT (10/9) 10:17 PM PDT (10/9)
Length of Visible Light 12h 20m
Length of Day
11h 28m
Waxing Crescent, 26% of the Moon is Illuminated
Oct 9
Waxing Crescent
Oct 11
First Quarter
Oct 18
Full
Oct 26
Last Quarter
Nov 3
New

Hourly Weather History & Observations

Time (PDT) Temp. Dew Point Humidity Pressure Visibility Wind Dir Wind Speed Gust Speed Precip Events Conditions
12:15 AM 57.2 °F 46.4 °F 67% 29.67 in 10.0 mi WNW 5.8 mph - N/A   Clear
12:35 AM 57.2 °F 46.4 °F 67% 29.66 in 10.0 mi WNW 6.9 mph - N/A   Clear
12:55 AM 57.2 °F 46.4 °F 67% 29.65 in 10.0 mi WNW 6.9 mph - N/A   Clear
1:15 AM 57.2 °F 44.6 °F 63% 29.65 in 10.0 mi WNW 8.1 mph - N/A   Clear
1:35 AM 57.2 °F 44.6 °F 63% 29.65 in 10.0 mi NW 8.1 mph - N/A   Clear
1:55 AM 55.4 °F 44.6 °F 67% 29.65 in 10.0 mi WNW 9.2 mph - N/A   Clear
2:15 AM 55.4 °F 44.6 °F 67% 29.64 in 10.0 mi WNW 6.9 mph - N/A   Clear
2:35 AM 55.4 °F 44.6 °F 67% 29.64 in 10.0 mi WNW 6.9 mph - N/A   Clear
2:55 AM 53.6 °F 44.6 °F 72% 29.63 in 10.0 mi WNW 6.9 mph - N/A   Clear
3:15 AM 53.6 °F 44.6 °F 72% 29.63 in 10.0 mi WNW 6.9 mph - N/A   Clear
3:35 AM 53.6 °F 44.6 °F 72% 29.62 in 10.0 mi NW 6.9 mph - N/A   Clear
3:55 AM 53.6 °F 46.4 °F 77% 29.61 in 10.0 mi WNW 5.8 mph - N/A   Clear
4:15 AM 53.6 °F 46.4 °F 77% 29.61 in 10.0 mi WNW 8.1 mph - N/A   Clear
4:35 AM 53.6 °F 46.4 °F 77% 29.61 in 10.0 mi WNW 3.5 mph - N/A   Clear
4:55 AM 51.8 °F 44.6 °F 76% 29.61 in 10.0 mi SSW 3.5 mph - N/A   Clear
5:15 AM 50.0 °F 46.4 °F 87% 29.61 in 10.0 mi West 4.6 mph - N/A   Clear
5:35 AM 53.6 °F 46.4 °F 77% 29.61 in 10.0 mi WNW 5.8 mph - N/A   Clear
5:55 AM 53.6 °F 46.4 °F 77% 29.61 in 10.0 mi Calm Calm - N/A   Clear
6:15 AM 51.8 °F 46.4 °F 82% 29.61 in 10.0 mi Calm Calm - N/A   Clear
6:35 AM 51.8 °F 46.4 °F 82% 29.61 in 10.0 mi SE 4.6 mph - N/A   Clear
6:45 AM 50.0 °F 46.4 °F 87% 29.62 in 10.0 mi Variable 3.5 mph - N/A   Mostly Cloudy
6:55 AM 50.0 °F 46.4 °F 87% 29.62 in 10.0 mi South 4.6 mph - N/A   Mostly Cloudy
7:45 AM 51.8 °F 50.0 °F 94% 29.63 in 7.0 mi Variable 3.5 mph - N/A Thunderstorm Thunderstorm
8:45 AM 53.6 °F 48.2 °F 82% 29.64 in 7.0 mi Variable 3.5 mph - N/A   Overcast
9:45 AM 55.4 °F 48.2 °F 77% 29.66 in 7.0 mi Variable 3.5 mph - N/A   Overcast
10:45 AM 57.2 °F 50.0 °F 77% 29.67 in 7.0 mi Calm Calm - N/A   Mostly Cloudy
11:45 AM 62.6 °F 50.0 °F 63% 29.67 in 7.0 mi Variable 3.5 mph - N/A   Mostly Cloudy
12:45 PM 64.4 °F 42.8 °F 45% 29.67 in 7.0 mi Variable 4.6 mph - N/A   Mostly Cloudy
1:45 PM 64.4 °F 42.8 °F 45% 29.66 in 7.0 mi Variable 4.6 mph - N/A   Mostly Cloudy
2:50 PM 66.2 °F 42.8 °F 43% 29.67 in 7.0 mi Calm Calm - N/A   Scattered Clouds
3:45 PM 68.0 °F 42.8 °F 40% 29.67 in 7.0 mi Calm Calm - N/A   Mostly Cloudy
4:45 PM 66.2 °F 42.8 °F 43% 29.67 in 7.0 mi Variable 4.6 mph - N/A   Mostly Cloudy
5:45 PM 64.4 °F 44.6 °F 49% 29.68 in 7.0 mi Calm Calm - N/A   Mostly Cloudy
6:45 PM 60.8 °F 46.4 °F 59% 29.69 in 7.0 mi Variable 4.6 mph - N/A   Mostly Cloudy
7:45 PM 57.2 °F 46.4 °F 67% 29.70 in 10.0 mi Variable 4.6 mph - N/A   Scattered Clouds
8:45 PM 57.2 °F 46.4 °F 67% 29.72 in 10.0 mi Variable 4.6 mph - N/A   Clear
9:15 PM 53.6 °F 46.4 °F 77% 29.73 in 10.0 mi SSW 4.6 mph - N/A   Clear
9:55 PM 51.8 °F 46.4 °F 82% 29.74 in 10.0 mi SSW 4.6 mph - N/A   Clear
10:15 PM 51.8 °F 48.2 °F 88% 29.74 in 10.0 mi South 4.6 mph - N/A   Clear
10:35 PM 51.8 °F 48.2 °F 88% 29.74 in 10.0 mi SSW 4.6 mph - N/A   Clear
10:55 PM 51.8 °F 46.4 °F 82% 29.74 in 10.0 mi South 4.6 mph - N/A   Clear
11:15 PM 48.2 °F 46.4 °F 93% 29.75 in 10.0 mi SSE 3.5 mph - N/A   Clear
11:35 PM 50.0 °F 48.2 °F 94% 29.75 in 10.0 mi SSE 4.6 mph - N/A   Clear
11:55 PM 48.2 °F 48.2 °F 100% 29.75 in 10.0 mi SE 6.9 mph - N/A   Clear